Location: Edemissen
(51.7689°N, 9.8634°E)
Time: 23:07:13
(UTC+00:00)

STRAND 1 - Pass Details

Date: 12 August 2025
Orbit: 761 x 775 km, 98.4° (Epoch: 15 December)

Event Time Altitude Azimuth Distance (km) Brightness Sun altitude
Rises 02:58:12 0° 124° (SE) 3,223 ? -9.0°
Reaches altitude 10° 03:00:51 10° 111° (ESE) 2,300 ? -8.7°
Maximum altitude 03:04:52 24° 58° (ENE) 1,536 ? -8.2°
Drops below altitude 10° 03:08:53 10° 6° (N) 2,309 ? -7.7°
Sets 03:11:33 0° 353° (N) 3,239 ? -7.4°
